PulseSat

PulseSat

TIANLIAN 1-03

Last updated on Dec. 16, 2018, 12:08 a.m. UTC

1 38730U 12040A   18349.18382829  .00000085  00000-0  00000+0 0  9996
2 38730   0.1263 267.8518 0003404 253.6632 359.0467  1.00274844 23504
UTC
Height (km)
Latitude
Longitude
Inclination
Orbital Period

Next 30 passes for location: Hong Kong

Rise time Rise Azimuth (degrees) Set time Set Azimuth (degrees) Duration Max altitude (degrees)

No matching passes for this satellites

PulseSat

PulseSat is the new satellites software and hardware trackering solution by Pulsely.
Satellite Two Line Element Set source: US Air Force Space Command

Download PulseSat for iOS
© 2017 Pulsely Limited